Weather History for Kalispell, MT

Change the Weather History Date:

Saturday, January 5, 2013

  Actual Average Record
Temperature  
Mean Temperature 24 °F 22 °F  
Max Temperature 33 °F 30 °F 52 °F (2012)
Min Temperature 14 °F 15 °F -30 °F (1979)
Degree Days  
Heating Degree Days 41 43  
Month to date heating degree days 221 215  
Since 1 July heating degree days 3331 3729  
Cooling Degree Days 0 0  
Month to date cooling degree days 0 0  
Year to date cooling degree days 0 0  
Moisture  
Dew Point 21 °F    
Average Humidity 85    
Maximum Humidity 100    
Minimum Humidity 69    
Precipitation  
Precipitation 0.00 in 0.05 in 0.77 in (1926)
Month to date precipitation 0.03 0.25  
Year to date precipitation 0.03 0.25  
Snow  
Snow 0.00 in - - ()
Month to date snowfall 0.4  
Year to date snowfall 0.4  
Since 1 July snowfall 9.2  
Snow Depth 2.00 in    
Sea Level Pressure  
Sea Level Pressure 30.36 in    
Wind  
Wind Speed 1 mph (North)    
Max Wind Speed 8 mph    
Max Gust Speed 9 mph    
Visibility 8 miles    
Events Fog    
T = Trace of Precipitation, MM = Missing Value Source: NWS Daily Summary

Daily Weather History Graph

Daily Weather History Graph

Search for Another Location

Airport:

Trip Planner

Search our weather history database for the weather conditions in past years. The results will help you decide how hot, cold, wet, or windy it might be!

Date:

Astronomy

Jan. 05, 2013 Rise Set
Actual Time 8:27 AM MST 4:58 PM MST
Civil Twilight 7:51 AM MST 5:34 PM MST
Nautical Twilight 7:11 AM MST 6:13 PM MST
Astronomical Twilight 6:34 AM MST 6:51 PM MST
Moon 1:22 AM MST (1/5) 12:04 PM MST (1/5)
Length of Visible Light 9h 42m
Length of Day
8h 30m
Last Quarter, 43% of the Moon is Illuminated
Jan 5
Last Quarter
Jan 11
New
Jan 18
First Quarter
Jan 26
Full
Feb 3
Last Quarter

Hourly Weather History & Observations

Time (MST) Temp. Windchill Dew Point Humidity Pressure Visibility Wind Dir Wind Speed Gust Speed Precip Events Conditions
12:55 AM 24.1 °F - 21.0 °F 88% 30.43 in 9.0 mi Calm Calm - N/A   Overcast
1:55 AM 24.1 °F - 21.0 °F 88% 30.43 in 7.0 mi Calm Calm - N/A   Overcast
2:55 AM 24.1 °F - 21.0 °F 88% 30.45 in 8.0 mi Calm Calm - N/A   Overcast
3:55 AM 21.0 °F - 19.9 °F 96% 30.46 in 6.0 mi Calm Calm - N/A   Overcast
4:48 AM 15.8 °F - 15.8 °F 100% 30.33 in 1.5 mi Calm Calm - N/A   Clear
4:50 AM 17.6 °F - 15.8 °F 93% 30.33 in 1.0 mi Calm Calm - N/A   Mist
4:55 AM 18.0 °F - 17.1 °F 96% 30.46 in 0.8 mi Calm Calm - N/A   Mist
5:14 AM 14.0 °F - 12.2 °F 93% 30.33 in 0.5 mi Calm Calm - N/A Fog Light Freezing Fog
5:23 AM 15.8 °F - 15.8 °F 100% 30.33 in 1.5 mi Calm Calm - N/A   Mostly Cloudy
5:27 AM 17.6 °F - 15.8 °F 93% 30.33 in 3.0 mi Calm Calm - N/A   Mostly Cloudy
5:55 AM 19.9 °F - 18.0 °F 92% 30.47 in 7.0 mi Calm Calm - N/A   Overcast
6:55 AM 21.0 °F 16.2 °F 19.0 °F 92% 30.47 in 9.0 mi North 3.5 mph - N/A   Overcast
7:44 AM 21.2 °F - 19.4 °F 93% 30.34 in 10.0 mi Calm Calm - N/A   Overcast
7:55 AM 21.0 °F - 19.9 °F 96% 30.47 in 10.0 mi Calm Calm - N/A   Overcast
8:55 AM 21.9 °F - 21.0 °F 96% 30.46 in 10.0 mi Calm Calm - N/A   Overcast
9:19 AM 23.0 °F - 21.2 °F 93% 30.33 in 10.0 mi Calm Calm - N/A   Overcast
9:55 AM 24.1 °F - 21.9 °F 91% 30.45 in 10.0 mi Calm Calm - N/A   Overcast
10:55 AM 25.0 °F - 21.9 °F 88% 30.45 in 10.0 mi Calm Calm - N/A   Overcast
11:55 AM 28.0 °F 24.2 °F 23.0 °F 81% 30.43 in 10.0 mi NNE 3.5 mph - N/A   Overcast
12:55 PM 28.9 °F - 24.1 °F 82% 30.39 in 10.0 mi Calm Calm - N/A   Overcast
1:55 PM 32.0 °F 28.7 °F 25.0 °F 75% 30.35 in 10.0 mi North 3.5 mph - N/A   Overcast
2:16 PM 32.0 °F 27.5 °F 24.8 °F 75% 30.24 in 10.0 mi North 4.6 mph - N/A   Scattered Clouds
2:55 PM 33.1 °F 28.7 °F 24.1 °F 70% 30.32 in 10.0 mi North 4.6 mph - N/A   Partly Cloudy
3:55 PM 30.0 °F - 24.1 °F 79% 30.32 in 10.0 mi Calm Calm - N/A   Clear
4:55 PM 26.1 °F - 21.9 °F 84% 30.35 in 10.0 mi Calm Calm - N/A   Partly Cloudy
5:55 PM 23.0 °F - 19.9 °F 88% 30.33 in 10.0 mi Calm Calm - N/A   Partly Cloudy
6:55 PM 25.0 °F 19.3 °F 21.9 °F 88% 30.31 in 10.0 mi SW 4.6 mph - N/A   Overcast
7:55 PM 25.0 °F - 21.9 °F 88% 30.30 in 10.0 mi Calm Calm - N/A   Overcast
8:55 PM 25.0 °F - 23.0 °F 92% 30.27 in 10.0 mi Calm Calm - N/A   Overcast
9:55 PM 25.0 °F - 23.0 °F 92% 30.25 in 9.0 mi Calm Calm - N/A   Overcast
10:55 PM 26.1 °F - 23.0 °F 88% 30.23 in 10.0 mi Calm Calm - N/A   Overcast
11:55 PM 26.1 °F - 23.0 °F 88% 30.21 in 10.0 mi Calm Calm - N/A   Overcast